Location: Hochstatterhof
(48.7256°N, 10.3487°E)
Time: 02:28:50
(UTC+00:00)

Cosmos 2333 Rocket - Pass Details

Date: 26 September 2023
Orbit: 837 x 864 km, 70.8° (Epoch: 04 December)

Event Time Altitude Azimuth Distance (km) Brightness Sun altitude
Rises 04:15:07 0° 325° (NW) 3,427 5.1 -9.9°
Reaches altitude 10° 04:17:47 10° 316° (NW) 2,491 4.3 -9.5°
Maximum altitude 04:22:47 32° 255° (WSW) 1,424 2.9 -8.6°
Drops below altitude 10° 04:27:48 10° 193° (SSW) 2,490 4.4 -7.8°
Sets 04:30:28 0° 184° (S) 3,425 5.3 -7.4°
